Retour au catalogue

FREGAT R/B

ActifHEO
NORAD 52146·ROCKET BODY·🇷🇺 Russia

Lancé Mar 22, 2022 depuis Plesetsk Cosmodrome

Loading…

Prochains Passages (prochaines 24 heures)

TLE

FraisSource: Space-Track

Époque: Sep 12, 2026, 02:41 UTC

1 52146U 22030B   26255.11213851 -.00000839  00000-0  00000-0 0  9998
2 52146  62.6813 125.1002 6892804 274.6999  16.1711  2.00114484 32758

Suivez FREGAT R/B en temps réel avec AllMySat

Download on the App Store